EW2602 Weather Reports


Display with metric or nautical units.
time (UTC)temp
F
wind
direction
speed
MPH
gust
MPH
rain 1hr
in
rain 24hr
in
rain mn
in
humidity
%
barometer
mb
20210917171751 71 275 0.0 0.0 0.00 0.04 0.01 1 1021.7
20210917170052 71 275 0.0 0.0 0.00 0.04 0.01 1 1021.7
20210917164523 71 9 0.0 0.0 0.00 0.05 0.01 1 1021.8
20210917163052 71 77 0.0 0.0 0.00 0.05 0.01 1 1021.8
20210917161523 71 329 0.0 0.0 0.00 0.05 0.01 1 1021.9
20210917160017 71 147 0.0 0.0 0.00 0.05 0.01 1 1022.0
20210917154511 70 219 0.0 0.0 0.00 0.07 0.01 1 1022.0
20210917151705 69 55 0.0 0.0 0.00 0.07 0.01 1 1021.8
20210917150132 70 309 0.0 0.0 0.00 0.07 0.01 1 1021.8
20210917144637 69 309 0.0 0.0 0.00 0.07 0.01 1 1021.6
20210917143056 69 309 0.0 0.0 0.00 0.07 0.01 1 1021.5
20210917141608 69 309 0.0 0.0 0.00 0.07 0.01 1 1021.5
20210917140109 69 309 0.0 0.0 0.00 0.07 0.01 1 1021.3
20210917134606 68 57 0.0 0.0 0.00 0.08 0.01 1 1021.2
20210917133055 68 314 0.0 0.0 0.00 0.08 0.01 1 1021.1
20210917131525 68 314 0.0 0.0 0.00 0.08 0.01 1 1021.1
20210917130030 68 325 0.0 0.0 0.00 0.08 0.01 1 1020.9
20210917124516 68 325 0.0 0.0 0.00 0.08 0.01 1 1020.9
20210917123012 68 325 0.0 0.0 0.00 0.08 0.01 1 1020.7
20210917121525 68 283 0.0 0.0 0.00 0.08 0.01 1 1020.6
20210917120014 68 277 0.0 0.0 0.00 0.08 0.01 1 1020.5
20210917114605 67 63 0.0 0.0 0.00 0.08 0.01 1 1020.3
20210917113124 67 76 0.0 0.0 0.00 0.08 0.01 1 1020.0
20210917111742 67 76 0.0 0.0 0.00 0.08 0.01 1 1020.0
20210917110208 67 291 0.0 0.0 0.00 0.08 0.01 1 1019.9
20210917104616 67 291 0.0 0.0 0.00 0.10 0.01 1 1019.6
20210917103045 67 291 0.0 0.0 0.00 0.10 0.01 1 1019.6
20210917101610 68 291 0.0 0.0 0.00 0.10 0.01 1 1019.5
20210917100026 68 291 0.0 0.0 0.00 0.10 0.01 1 1019.2
20210917094547 68 264 0.0 0.0 0.00 0.10 0.01 1 1019.1
20210917093054 68 264 0.0 0.0 0.00 0.10 0.01 1 1018.9
20210917091604 68 290 0.0 0.0 0.00 0.10 0.01 1 1018.8
20210917090024 68 290 0.0 0.0 0.00 0.10 0.01 1 1018.7
20210917084547 68 332 0.0 1.0 0.00 0.10 0.01 1 1018.8
20210917083025 68 251 0.0 0.0 0.00 0.10 0.01 1 1018.7
20210917081520 68 251 0.0 0.0 0.00 0.10 0.01 1 1018.9
20210917080008 68 251 0.0 0.0 0.01 0.10 0.01 1 1018.8
20210917074713 68 312 0.0 0.0 0.01 0.10 0.01 1 1018.8
20210917073110 68 278 0.0 0.0 0.01 0.10 0.01 1 1018.8
20210917071616 68 278 0.0 0.0 0.01 0.10 0.01 1 1018.9
20210917070116 68 278 0.0 0.0 0.00 0.09 0.00 1 1019.0
20210917064651 68 215 0.0 0.0 0.00 0.09 0.00 1 1019.2
20210917063128 68 340 0.0 0.0 0.00 0.09 0.00 1 1019.1
20210917061618 68 333 0.0 0.0 0.00 0.09 0.00 1 1019.2
20210917060049 68 351 0.0 0.0 0.00 0.09 0.00 1 1019.3
20210917054546 68 351 0.0 0.0 0.00 0.09 0.00 1 1019.3
20210917053032 68 279 0.0 1.0 0.00 0.09 0.00 1 1019.3
20210917051548 68 37 0.0 0.0 0.00 0.09 0.00 1 1019.2
20210917050122 68 304 0.0 0.0 0.00 0.09 0.00 1 1019.3
20210917044527 68 142 0.0 1.0 0.00 0.09 0.09 1 1019.2
20210917043042 68 98 0.0 1.0 0.00 0.09 0.09 1 1019.1
20210917041558 68 120 0.0 1.0 0.00 0.09 0.09 1 1019.0
20210917040014 68 78 0.0 0.0 0.00 0.09 0.09 1 1018.9
20210917034509 68 298 0.0 0.0 0.00 0.09 0.09 1 1019.1
20210917033027 68 323 0.0 2.0 0.00 0.09 0.09 1 1019.3
20210917031638 68 67 0.0 0.0 0.00 0.09 0.09 1 1019.4
20210917030131 68 64 0.0 0.0 0.00 0.09 0.09 1 1019.4
20210917024630 68 333 0.0 3.0 0.00 0.09 0.09 1 1019.4
20210917023110 69 277 0.0 0.0 0.00 0.09 0.09 1 1019.4
20210917021607 69 277 0.0 0.0 0.00 0.09 0.09 1 1019.4
20210917020048 69 277 0.0 0.0 0.00 0.09 0.09 1 1019.3
20210917014603 69 277 0.0 0.0 0.00 0.09 0.09 1 1019.2
20210917013043 69 277 0.0 0.0 0.00 0.09 0.09 1 1019.1
20210917011536 69 277 0.0 0.0 0.00 0.09 0.09 1 1019.0
20210917010025 69 277 0.0 0.0 0.00 0.09 0.09 1 1018.8
20210917004520 69 277 0.0 0.0 0.00 0.09 0.09 1 1018.5
20210917003014 69 277 0.0 0.0 0.00 0.09 0.09 1 1018.2
20210917001531 69 277 0.0 0.0 0.00 0.09 0.09 1 1018.1
20210917000006 69 277 0.0 0.0 0.00 0.09 0.09 1 1018.1
20210916234559 69 277 0.0 0.0 0.00 0.09 0.09 1 1018.0
20210916233123 69 277 0.0 0.0 0.00 0.09 0.09 1 1018.0
20210916231629 69 51 0.0 0.0 0.00 0.09 0.09 1 1017.8
20210916230105 69 51 0.0 0.0 0.00 0.09 0.09 1 1017.7
20210916224642 70 51 0.0 0.0 0.00 0.09 0.09 1 1017.5
20210916223118 70 321 0.0 0.0 0.00 0.09 0.09 1 1017.4
20210916221607 70 321 0.0 0.0 0.00 0.09 0.09 1 1017.3
20210916220028 70 284 0.0 0.0 0.00 0.09 0.09 1 1017.2
20210916214545 70 76 0.0 0.0 0.00 0.10 0.09 1 1017.3
20210916213018 70 172 0.0 0.0 0.00 0.10 0.09 1 1017.1
20210916211517 69 242 0.0 0.0 0.00 0.10 0.09 1 1017.2
20210916210029 69 242 0.0 0.0 0.00 0.10 0.09 1 1017.2
20210916204510 69 34 0.0 0.0 0.00 0.10 0.09 1 1017.2
20210916203014 69 34 0.0 0.0 0.00 0.10 0.09 1 1017.1
20210916201512 69 306 0.0 0.0 0.00 0.10 0.09 1 1017.2
20210916200005 69 306 0.0 1.0 0.00 0.10 0.09 1 1017.4
20210916194913 69 284 0.0 0.0 0.00 0.10 0.09 1 1017.4
20210916193251 69 284 0.0 0.0 0.00 0.10 0.09 1 1017.5
20210916191653 69 296 0.0 0.0 0.00 0.10 0.09 1 1017.8
20210916190121 68 274 0.0 0.0 0.01 0.10 0.09 1 1018.0
20210916184620 68 13 0.0 0.0 0.03 0.11 0.09 1 1018.2
20210916183116 69 305 0.0 0.0 0.03 0.11 0.09 1 1018.2
20210916181556 68 305 0.0 0.0 0.03 0.11 0.09 1 1018.3
20210916180038 68 73 0.0 0.0 0.02 0.10 0.08 1 1018.5
20210916174537 68 136 0.0 0.0 0.01 0.12 0.06 1 1018.5
20210916173101 68 17 0.0 0.0 0.01 0.12 0.06 1 1018.7